KO4FR Weather Reports


time (UTC)temp
C
wind
direction
speed
KPH
gust
KPH
rain 1hr
cm
rain 24hr
cm
rain mn
cm
humidity
%
barometer
mb
20260510162505 27 126 0.0 3.2 0.00 0.00 0.00 31 1015.5
20260510162004 27 26 0.0 0.0 0.00 0.00 0.00 33 1015.6
20260510161504 27 17 0.0 3.2 0.00 0.00 0.00 31 1015.6
20260510161004 27 17 0.0 3.2 0.00 0.00 0.00 33 1015.7
20260510160503 26 23 0.0 0.0 0.00 0.00 0.00 34 1015.7
20260510160002 26 108 0.0 0.0 0.00 0.00 0.00 34 1015.7
20260510155502 26 131 0.0 16.1 0.00 0.00 0.00 36 1015.8
20260510155002 26 109 0.0 16.1 0.00 0.00 0.00 38 1015.8
20260510154502 26 120 8.0 16.1 0.00 0.00 0.00 38 1015.8
20260510154001 26 120 0.0 0.0 0.00 0.00 0.00 38 1015.8
20260510153501 26 120 0.0 0.0 0.00 0.00 0.00 39 1015.8
20260510153000 26 133 0.0 3.2 0.00 0.00 0.00 40 1015.9
20260510152459 26 134 0.0 3.2 0.00 0.00 0.00 40 1015.9
20260510151959 26 119 0.0 0.0 0.00 0.00 0.00 42 1015.9
20260510151459 25 119 0.0 0.0 0.00 0.00 0.00 39 1016.0
20260510150958 25 119 0.0 3.2 0.00 0.00 0.00 43 1016.0
20260510150458 25 120 0.0 3.2 0.00 0.00 0.00 37 1016.1
20260510145958 25 121 0.0 0.0 0.00 0.00 0.00 42 1016.0
20260510145457 25 121 0.0 0.0 0.00 0.00 0.00 45 1016.0
20260510144956 25 121 0.0 0.0 0.00 0.00 0.00 46 1016.0
20260510144456 24 121 0.0 0.0 0.00 0.00 0.00 46 1015.9
20260510143955 24 126 0.0 0.0 0.00 0.00 0.00 45 1015.9
20260510143454 24 126 0.0 0.0 0.00 0.00 0.00 47 1016.0
20260510142955 24 104 0.0 3.2 0.00 0.00 0.00 47 1016.0
20260510142454 24 104 0.0 3.2 0.00 0.00 0.00 49 1015.9
20260510141953 23 113 0.0 0.0 0.00 0.00 0.00 54 1015.7
20260510141453 23 114 0.0 0.0 0.00 0.00 0.00 47 1015.8
20260510140952 23 108 0.0 0.0 0.00 0.00 0.00 51 1015.7
20260510140453 23 103 0.0 0.0 0.00 0.00 0.00 52 1015.8
20260510135952 22 115 0.0 0.0 0.00 0.00 0.00 54 1015.8
20260510135452 22 120 0.0 0.0 0.00 0.00 0.00 54 1015.8
20260510134951 22 111 0.0 0.0 0.00 0.00 0.00 56 1015.9
20260510134451 22 123 0.0 0.0 0.00 0.00 0.00 62 1015.9
20260510133950 21 122 0.0 0.0 0.00 0.00 0.00 62 1015.9
20260510133450 21 128 0.0 0.0 0.00 0.00 0.00 62 1015.8
20260510132949 21 128 0.0 0.0 0.00 0.00 0.00 63 1015.9
20260510132449 20 128 0.0 3.2 0.00 0.00 0.00 65 1015.8
20260510131949 20 128 0.0 3.2 0.00 0.00 0.00 65 1015.9
20260510131447 20 120 0.0 0.0 0.00 0.00 0.00 67 1016.0
20260510130947 20 116 0.0 0.0 0.00 0.00 0.00 67 1015.9
20260510130517 19 116 0.0 0.0 0.00 0.00 0.00 67 1015.8
20260510125946 19 115 0.0 0.0 0.00 0.00 0.00 66 1015.7
20260510125446 19 115 0.0 0.0 0.00 0.00 0.00 66 1015.7
20260510125016 18 115 0.0 0.0 0.00 0.00 0.00 64 1015.7
20260510124445 18 115 0.0 0.0 0.00 0.00 0.00 62 1015.7
20260510123945 18 113 0.0 0.0 0.00 0.00 0.00 58 1015.6
20260510123514 17 121 0.0 0.0 0.00 0.00 0.00 48 1015.5
20260510123014 17 121 0.0 0.0 0.00 0.00 0.00 31 1015.5
20260510122513 16 134 0.0 0.0 0.00 0.00 0.00 15 1015.4
20260510122013 16 104 0.0 0.0 0.00 0.00 0.00 100 1015.3
20260510121513 16 104 0.0 0.0 0.00 0.00 0.00 100 1015.2
20260510120942 16 113 0.0 0.0 0.00 0.00 0.00 100 1015.1
20260510120512 15 124 0.0 0.0 0.00 0.00 0.00 100 1015.1
20260510120011 15 111 0.0 0.0 0.00 0.00 0.00 100 1015.0
20260510115511 15 111 0.0 0.0 0.00 0.00 0.00 100 1015.0
20260510115010 14 111 0.0 0.0 0.00 0.00 0.00 100 1015.0
20260510114509 13 111 0.0 0.0 0.00 0.00 0.00 100 1014.9
20260510114009 13 111 0.0 0.0 0.00 0.00 0.00 100 1014.9
20260510113509 13 111 0.0 0.0 0.00 0.00 0.00 100 1014.8
20260510113009 12 111 0.0 0.0 0.00 0.00 0.00 100 1014.7
20260510112508 12 111 0.0 0.0 0.00 0.00 0.00 100 1014.6
20260510112008 12 111 0.0 0.0 0.00 0.00 0.00 100 1014.4
20260510111508 11 111 0.0 0.0 0.00 0.00 0.00 100 1014.2
20260510111007 11 111 0.0 0.0 0.00 0.00 0.00 2 1014.2
20260510110507 11 111 0.0 0.0 0.00 0.00 0.00 4 1014.2
20260510110006 11 111 0.0 0.0 0.00 0.00 0.00 5 1014.1
20260510105506 11 111 0.0 0.0 0.00 0.00 0.00 5 1014.0
20260510105006 11 111 0.0 0.0 0.00 0.00 0.00 5 1014.0
20260510104505 11 111 0.0 0.0 0.00 0.00 0.00 6 1013.9
20260510104005 11 111 0.0 0.0 0.00 0.00 0.00 9 1013.7
20260510103504 12 111 0.0 0.0 0.00 0.00 0.00 7 1013.6
20260510103004 12 111 0.0 0.0 0.00 0.00 0.00 7 1013.6
20260510102504 12 111 0.0 0.0 0.00 0.00 0.00 8 1013.5
20260510102004 12 111 0.0 0.0 0.00 0.00 0.00 7 1013.4
20260510101503 12 111 0.0 0.0 0.00 0.00 0.00 7 1013.4
20260510101003 12 111 0.0 0.0 0.00 0.00 0.00 6 1013.4
20260510100503 12 111 0.0 0.0 0.00 0.00 0.00 5 1013.4
20260510100003 13 111 0.0 0.0 0.00 0.00 0.00 4 1013.3
20260510095502 13 111 0.0 0.0 0.00 0.00 0.00 4 1013.5
20260510095001 13 111 0.0 0.0 0.00 0.00 0.00 3 1013.4
20260510094501 13 111 0.0 0.0 0.00 0.00 0.00 2 1013.3
20260510094000 13 111 0.0 0.0 0.00 0.00 0.00 1 1013.3
20260510093500 13 111 0.0 0.0 0.00 0.00 0.00 100 1013.2
20260510093000 13 111 0.0 0.0 0.00 0.00 0.00 100 1013.1
20260510092459 13 111 0.0 0.0 0.00 0.00 0.00 100 1013.0
20260510091958 13 111 0.0 0.0 0.00 0.00 0.00 100 1012.9
20260510091458 13 111 0.0 0.0 0.00 0.00 0.00 1 1012.9
20260510090958 13 111 0.0 0.0 0.00 0.00 0.00 1 1012.8
20260510090457 13 111 0.0 0.0 0.00 0.00 0.00 100 1012.7
20260510085957 13 111 0.0 0.0 0.00 0.00 0.00 1 1012.7
20260510085457 13 114 0.0 0.0 0.00 0.00 0.00 3 1012.6
20260510084956 13 114 0.0 0.0 0.00 0.00 0.00 3 1012.5
20260510084456 13 114 0.0 0.0 0.00 0.00 0.00 2 1012.4
20260510083955 13 114 0.0 0.0 0.00 0.00 0.00 1 1012.4
20260510083455 13 114 0.0 0.0 0.00 0.00 0.00 2 1012.3
20260510082954 13 114 0.0 0.0 0.00 0.00 0.00 3 1012.3
20260510082454 13 113 0.0 0.0 0.00 0.00 0.00 5 1012.2
20260510081953 13 114 0.0 0.0 0.00 0.00 0.00 4 1012.1
20260510081453 13 114 0.0 0.0 0.00 0.00 0.00 4 1012.2
20260510080952 13 114 0.0 0.0 0.00 0.00 0.00 3 1012.1
20260510080453 13 113 0.0 0.0 0.00 0.00 0.00 4 1012.1
20260510075951 13 113 0.0 0.0 0.00 0.00 0.00 5 1012.2
20260510075452 13 114 0.0 0.0 0.00 0.00 0.00 8 1012.1
20260510074951 13 114 0.0 0.0 0.00 0.00 0.00 9 1012.1
20260510074450 13 113 0.0 0.0 0.00 0.00 0.00 11 1012.0
20260510073950 13 113 0.0 0.0 0.00 0.00 0.00 10 1012.0
20260510073450 13 113 0.0 0.0 0.00 0.00 0.00 12 1012.1
20260510072949 14 113 0.0 0.0 0.00 0.00 0.00 11 1012.2
20260510072448 14 113 0.0 0.0 0.00 0.00 0.00 9 1012.2
20260510071948 14 113 0.0 0.0 0.00 0.00 0.00 7 1012.1
20260510071448 14 113 0.0 0.0 0.00 0.00 0.00 8 1012.0
20260510070948 14 113 0.0 0.0 0.00 0.00 0.00 8 1012.1
20260510070447 14 113 0.0 0.0 0.00 0.00 0.00 9 1012.0
20260510070016 14 113 0.0 0.0 0.00 0.00 0.00 11 1012.0
20260510065516 14 113 0.0 0.0 0.00 0.00 0.00 14 1012.0
20260510065016 14 113 0.0 0.0 0.00 0.00 0.00 15 1012.0
20260510064445 15 113 0.0 0.0 0.00 0.00 0.00 16 1012.1
20260510063945 15 113 0.0 0.0 0.00 0.00 0.00 10 1012.2
20260510063444 15 113 0.0 0.0 0.00 0.00 0.00 9 1012.3
20260510062944 15 113 0.0 0.0 0.00 0.00 0.00 10 1012.4
20260510062514 15 113 0.0 0.0 0.00 0.00 0.00 16 1012.4
20260510062013 15 113 0.0 0.0 0.00 0.00 0.00 24 1012.4
20260510061512 15 113 0.0 0.0 0.00 0.00 0.00 26 1012.3
20260510061012 15 113 0.0 0.0 0.00 0.00 0.00 23 1012.4
20260510060511 15 113 0.0 0.0 0.00 0.00 0.00 20 1012.5
20260510060011 15 113 0.0 0.0 0.00 0.00 0.00 21 1012.6
20260510055510 15 113 0.0 0.0 0.00 0.00 0.00 24 1012.7
20260510055010 15 113 0.0 0.0 0.00 0.00 0.00 29 1012.6
20260510054509 16 113 0.0 0.0 0.00 0.00 0.00 34 1012.6
20260510054008 16 113 0.0 0.0 0.00 0.00 0.00 34 1012.6
20260510053509 16 113 0.0 0.0 0.00 0.00 0.00 36 1012.8
20260510053009 16 113 0.0 0.0 0.00 0.00 0.00 38 1012.7
20260510052509 16 113 0.0 0.0 0.00 0.00 0.00 38 1012.7
20260510052008 16 113 0.0 0.0 0.00 0.00 0.00 36 1012.7
20260510051508 16 113 0.0 0.0 0.00 0.00 0.00 38 1012.8
20260510051009 16 104 0.0 0.0 0.00 0.00 0.00 39 1012.8
20260510050508 16 104 0.0 0.0 0.00 0.00 0.00 39 1012.9
20260510050009 16 104 0.0 0.0 0.00 0.00 0.00 39 1012.9
20260510045509 16 104 0.0 0.0 0.00 0.00 0.00 39 1013.0
20260510045008 16 103 0.0 0.0 0.00 0.00 0.00 44 1012.9
20260510044508 17 103 0.0 0.0 0.00 0.00 0.00 45 1012.8
20260510044008 17 103 0.0 0.0 0.00 0.00 0.00 45 1012.9
20260510043508 17 103 0.0 0.0 0.00 0.00 0.00 47 1012.9
20260510043008 17 103 0.0 0.0 0.00 0.00 0.00 47 1012.8
20260510042508 17 103 0.0 0.0 0.00 0.00 0.00 43 1012.8
20260510042008 17 103 0.0 0.0 0.00 0.00 0.00 44 1012.7
20260510041508 17 103 0.0 0.0 0.00 0.00 0.00 47 1012.8
20260510041008 17 103 0.0 0.0 0.00 0.00 0.00 51 1012.8
20260510040508 17 103 0.0 0.0 0.00 0.00 0.00 48 1012.7
20260510040008 17 103 0.0 0.0 0.00 0.00 0.00 48 1012.6
20260510035508 17 103 0.0 0.0 0.00 0.00 0.00 50 1012.6
20260510035008 17 103 0.0 0.0 0.00 0.00 0.00 54 1012.5
20260510034508 17 103 0.0 0.0 0.00 0.00 0.00 54 1012.5
20260510034008 17 103 0.0 0.0 0.00 0.00 0.00 55 1012.5
20260510033508 17 103 0.0 0.0 0.00 0.00 0.00 59 1012.4
20260510033007 17 103 0.0 0.0 0.00 0.00 0.00 58 1012.3
20260510032508 18 103 0.0 0.0 0.00 0.00 0.00 60 1012.3
20260510032008 18 103 0.0 0.0 0.00 0.00 0.00 61 1012.3
20260510031507 18 103 0.0 0.0 0.00 0.00 0.00 61 1012.3
20260510031007 18 103 0.0 0.0 0.00 0.00 0.00 61 1012.2
20260510030508 18 103 0.0 0.0 0.00 0.00 0.00 62 1012.2
20260510030008 18 103 0.0 0.0 0.00 0.00 0.00 62 1012.3
20260510025508 18 103 0.0 0.0 0.00 0.00 0.00 63 1012.3
20260510025008 18 101 0.0 0.0 0.00 0.00 0.00 63 1012.3
20260510024507 18 101 0.0 0.0 0.00 0.00 0.00 64 1012.3
20260510024007 18 101 0.0 0.0 0.00 0.00 0.00 64 1012.3
20260510023507 18 101 0.0 0.0 0.00 0.00 0.00 64 1012.2
20260510023007 18 99 0.0 0.0 0.00 0.00 0.00 65 1012.2
20260510022508 18 101 0.0 0.0 0.00 0.00 0.00 65 1012.2
20260510022007 18 104 0.0 0.0 0.00 0.00 0.00 66 1012.1
20260510021507 18 102 0.0 0.0 0.00 0.00 0.00 66 1012.0
20260510021007 18 96 0.0 0.0 0.00 0.00 0.00 66 1011.9
20260510020507 18 101 0.0 0.0 0.00 0.00 0.00 67 1011.9
20260510020007 18 101 0.0 0.0 0.00 0.00 0.00 67 1011.8
20260510015507 18 101 0.0 0.0 0.00 0.00 0.00 67 1011.8
20260510015007 18 101 0.0 0.0 0.00 0.00 0.00 67 1011.6
20260510014507 18 101 0.0 0.0 0.00 0.00 0.00 67 1011.4
20260510014007 18 101 0.0 0.0 0.00 0.00 0.00 68 1011.4
20260510013507 18 101 0.0 0.0 0.00 0.00 0.00 68 1011.4
20260510013007 18 101 0.0 0.0 0.00 0.00 0.00 68 1011.2
20260510012507 18 101 0.0 0.0 0.00 0.00 0.00 68 1011.2
20260510012007 18 101 0.0 0.0 0.00 0.00 0.00 68 1011.0
20260510011507 18 101 0.0 0.0 0.00 0.00 0.00 68 1011.1
20260510011007 19 101 0.0 0.0 0.00 0.00 0.00 68 1011.0
20260510010507 18 101 0.0 0.0 0.00 0.00 0.00 68 1011.1
20260510010007 19 101 0.0 0.0 0.00 0.00 0.00 68 1011.0
20260510005507 19 101 0.0 0.0 0.00 0.00 0.00 68 1010.8
20260510005007 19 100 0.0 0.0 0.00 0.00 0.00 68 1010.9
20260510004507 19 100 0.0 0.0 0.00 0.00 0.00 67 1010.9
20260510004006 19 100 0.0 0.0 0.00 0.00 0.00 67 1010.8
20260510003507 20 100 0.0 0.0 0.00 0.00 0.00 67 1010.7
20260510003006 20 100 0.0 0.0 0.00 0.00 0.00 67 1010.8
20260510002506 20 100 0.0 0.0 0.00 0.00 0.00 67 1010.6
20260510002005 20 100 0.0 0.0 0.00 0.00 0.00 67 1010.7
20260510001506 20 100 0.0 0.0 0.00 0.00 0.00 66 1010.6
20260510001005 20 100 0.0 0.0 0.00 0.00 0.00 65 1010.5
20260510000504 20 100 0.0 0.0 0.00 0.00 0.00 65 1010.4
20260510000004 21 100 0.0 0.0 0.00 0.00 0.00 64 1010.3
20260509235503 21 100 0.0 0.0 0.00 0.00 0.00 64 1010.1
20260509235003 21 100 0.0 0.0 0.00 0.00 0.00 63 1010.1
20260509234503 21 100 0.0 0.0 0.00 0.00 0.00 62 1010.1
20260509234002 21 100 0.0 0.0 0.00 0.00 0.00 62 1010.0
20260509233502 21 100 0.0 0.0 0.00 0.00 0.00 61 1009.9
20260509233001 21 100 0.0 0.0 0.00 0.00 0.00 61 1010.0
20260509232501 22 100 0.0 0.0 0.00 0.00 0.00 60 1010.0
20260509232000 22 100 0.0 0.0 0.00 0.00 0.00 60 1009.9
20260509231500 22 100 0.0 0.0 0.00 0.00 0.00 58 1009.8
20260509231000 22 100 0.0 0.0 0.00 0.00 0.00 58 1009.8
20260509230459 22 100 0.0 3.2 0.00 0.00 0.00 58 1009.9
20260509225958 22 99 0.0 6.4 0.00 0.00 0.00 56 1009.9
20260509225458 23 104 0.0 6.4 0.00 0.00 0.00 55 1009.8
20260509224958 23 101 0.0 0.0 0.00 0.00 0.00 55 1009.9
20260509224458 23 111 0.0 3.2 0.00 0.00 0.00 54 1009.9
20260509223958 23 119 0.0 3.2 0.00 0.00 0.00 53 1009.8
20260509223456 23 86 0.0 0.0 0.00 0.00 0.00 54 1009.8
20260509222956 23 99 0.0 0.0 0.00 0.00 0.00 54 1009.9
20260509222456 23 76 0.0 0.0 0.00 0.00 0.00 53 1009.9
20260509221955 23 104 0.0 3.2 0.00 0.00 0.00 53 1009.9
20260509221455 23 115 0.0 3.2 0.00 0.00 0.00 53 1009.9
20260509220955 23 113 0.0 0.0 0.00 0.00 0.00 52 1009.9
20260509220454 23 102 0.0 3.2 0.00 0.00 0.00 53 1009.8
20260509215954 24 113 0.0 3.2 0.00 0.00 0.00 52 1009.8
20260509215454 24 126 1.6 3.2 0.00 0.00 0.00 51 1009.7
20260509214953 23 123 0.0 6.4 0.00 0.00 0.00 51 1009.6
20260509214452 24 106 0.0 6.4 0.00 0.00 0.00 52 1009.5
20260509213952 23 120 0.0 3.2 0.00 0.00 0.00 52 1009.5
20260509213452 23 113 0.0 3.2 0.00 0.00 0.00 54 1009.6
20260509212951 23 100 0.0 3.2 0.00 0.00 0.00 54 1009.5
20260509212450 23 103 0.0 3.2 0.00 0.00 0.00 53 1009.6
20260509211950 24 120 0.0 3.2 0.00 0.00 0.00 52 1009.5
20260509211450 24 108 0.0 0.0 0.00 0.00 0.00 54 1009.6
20260509210949 24 98 0.0 3.2 0.00 0.00 0.00 51 1009.4
20260509210449 24 66 0.0 3.2 0.00 0.00 0.00 52 1009.5
20260509205949 24 130 0.0 3.2 0.00 0.00 0.00 51 1009.6
20260509205448 23 102 0.0 3.2 0.00 0.00 0.00 52 1009.7
20260509204948 23 123 0.0 3.2 0.00 0.00 0.00 53 1009.5
20260509204518 23 119 0.0 3.2 0.00 0.00 0.00 55 1009.6
20260509204017 22 101 0.0 0.0 0.00 0.00 0.00 54 1009.7
20260509203447 22 107 0.0 3.2 0.00 0.00 0.00 54 1009.7
20260509202946 22 100 0.0 3.2 0.00 0.00 0.00 53 1009.7
20260509202446 23 90 0.0 6.4 0.00 0.00 0.00 51 1009.8
20260509202015 23 105 0.0 6.4 0.00 0.00 0.00 50 1009.8
20260509201444 23 130 1.6 3.2 0.00 0.00 0.00 49 1009.8
20260509200944 24 107 0.0 3.2 0.00 0.00 0.00 49 1009.8
20260509200514 24 115 0.0 3.2 0.00 0.00 0.00 49 1009.7
20260509200013 24 106 0.0 3.2 0.00 0.00 0.00 46 1009.7
20260509195513 24 107 0.0 3.2 0.00 0.00 0.00 47 1009.8
20260509195013 25 84 0.0 3.2 0.00 0.00 0.00 49 1009.8
20260509194512 24 90 0.0 0.0 0.00 0.00 0.00 49 1009.8
20260509194011 23 92 0.0 9.7 0.00 0.00 0.00 49 1009.8
20260509193511 24 94 0.0 9.7 0.00 0.00 0.00 48 1010.0
20260509193011 24 98 0.0 9.7 0.00 0.00 0.00 50 1010.0
20260509192510 24 104 0.0 9.7 0.00 0.00 0.00 50 1010.1
20260509192010 24 117 0.0 12.9 0.00 0.00 0.00 50 1010.1
20260509191509 24 128 0.0 12.9 0.00 0.00 0.00 49 1010.3
20260509191009 24 93 0.0 6.4 0.00 0.00 0.00 49 1010.3
20260509190508 23 105 0.0 6.4 0.00 0.00 0.00 51 1010.4
20260509190008 24 103 0.0 6.4 0.00 0.00 0.00 50 1010.5
20260509185508 24 109 0.0 6.4 0.00 0.00 0.00 50 1010.5
20260509185007 23 104 1.6 6.4 0.00 0.00 0.00 52 1010.5
20260509184506 23 111 0.0 9.7 0.00 0.00 0.00 52 1010.7
20260509184007 22 150 1.6 9.7 0.00 0.00 0.00 55 1010.7
20260509183506 23 100 0.0 6.4 0.00 0.00 0.00 52 1010.8
20260509183005 23 119 0.0 9.7 0.00 0.00 0.00 52 1010.8
20260509182506 23 117 3.2 9.7 0.00 0.00 0.00 52 1011.0
20260509182005 23 98 0.0 6.4 0.00 0.00 0.00 57 1010.9
20260509181504 23 126 1.6 6.4 0.00 0.00 0.00 54 1011.0
20260509181004 23 103 0.0 6.4 0.00 0.00 0.00 53 1011.1
20260509180504 23 102 0.0 6.4 0.00 0.00 0.00 53 1011.2
20260509180004 23 104 0.0 6.4 0.00 0.00 0.00 55 1011.0
20260509175503 22 94 0.0 6.4 0.00 0.00 0.00 54 1011.2
20260509175003 22 107 0.0 3.2 0.00 0.00 0.00 55 1011.2
20260509174502 23 111 0.0 6.4 0.00 0.00 0.00 54 1011.2
20260509174002 22 80 0.0 6.4 0.00 0.00 0.00 56 1011.3
20260509173501 22 107 0.0 6.4 0.00 0.00 0.00 56 1011.5
20260509173001 22 108 0.0 6.4 0.00 0.00 0.00 55 1011.4
20260509172500 23 88 0.0 9.7 0.00 0.00 0.00 52 1011.4
20260509172000 22 111 0.0 9.7 0.00 0.00 0.00 53 1011.4
20260509171500 22 115 1.6 3.2 0.00 0.00 0.00 53 1011.5
20260509170959 22 110 0.0 6.4 0.00 0.00 0.00 56 1011.4
20260509170459 22 104 0.0 6.4 0.00 0.00 0.00 54 1011.5
20260509165959 22 109 0.0 6.4 0.00 0.00 0.00 52 1011.6
20260509165458 22 142 0.0 3.2 0.00 0.00 0.00 53 1011.4
20260509164957 22 113 0.0 3.2 0.00 0.00 0.00 55 1011.6
20260509164457 22 113 0.0 3.2 0.00 0.00 0.00 53 1011.8
20260509163957 22 107 0.0 6.4 0.00 0.00 0.00 53 1011.9
20260509163457 22 98 0.0 6.4 0.00 0.00 0.00 53 1011.8
20260509162956 22 98 0.0 6.4 0.00 0.00 0.00 54 1012.0